When you browse on this site, cookies collect data to enhance your experience and personalize the content and advertising you see.
Visit our Privacy Policy to learn more. By continuing to use the site, you agree to this use of cookies and data.
  • In Austria
  • List of Countries
  • For 7 days
  • Water Temperature
  • Weather Map
  • News
  • Weather Widgets
  • user-avatar
    Login

    Hourly Weather Santa Cruz

    Today, 28 February, Friday

    Time Temperature Precipitation Wind Pressure Humidity
    00:00 +23°C° 0 mm 1 mps 724 mmHg 68%
    01:00 +23°C° 0 mm 1 mps 724 mmHg 68%
    02:00 +23°C° 0 mm 1 mps 724 mmHg 67%
    03:00 +22°C° 0 mm 1 mps 723 mmHg 67%
    04:00 +22°C° 0 mm 1 mps 723 mmHg 68%
    05:00 +20°C° 0 mm 2 mps 723 mmHg 69%
    06:00 +23°C° 0 mm 2 mps 724 mmHg 65%
    07:00 +24°C° 0 mm 2 mps 724 mmHg 62%
    08:00 +25°C° 0 mm 2 mps 725 mmHg 58%
    09:00 +27°C° 0 mm 2 mps 725 mmHg 50%
    10:00 +30°C° 0 mm 2 mps 725 mmHg 43%
    11:00 +32°C° 0 mm 2 mps 725 mmHg 35%
    12:00 +34°C° 0 mm 2 mps 725 mmHg 33%
    13:00 +34°C° 0 mm 2 mps 724 mmHg 32%
    14:00 +35°C° 0 mm 2 mps 723 mmHg 30%
    15:00 +35°C° 0 mm 2 mps 723 mmHg 34%
    16:00 +34°C° 0 mm 2 mps 722 mmHg 38%
    17:00 +32°C° 0 mm 2 mps 721 mmHg 42%
    18:00 +30°C° 0 mm 2 mps 722 mmHg 47%
    19:00 +28°C° 0 mm 2 mps 722 mmHg 52%
    20:00 +25°C° 0 mm 2 mps 723 mmHg 57%
    21:00 +25°C° 0 mm 1 mps 723 mmHg 58%
    22:00 +24°C° 0 mm 1 mps 724 mmHg 58%
    23:00 +22°C° 0 mm 0 mps 725 mmHg 58%

    Tomorrow, 29 February, Saturday

    Time Temperature Precipitation Wind Pressure Humidity
    00:00 +24°C° 0 mm 1 mps 725 mmHg 57%
    01:00 +23°C° 0 mm 1 mps 724 mmHg 56%
    02:00 +23°C° 0 mm 1 mps 724 mmHg 55%
    03:00 +23°C° 0 mm 1 mps 724 mmHg 54%
    04:00 +23°C° 0 mm 1 mps 724 mmHg 53%
    05:00 +23°C° 0 mm 1 mps 724 mmHg 51%
    06:00 +24°C° 0 mm 2 mps 725 mmHg 51%
    07:00 +25°C° 0 mm 2 mps 725 mmHg 50%
    08:00 +26°C° 0 mm 2 mps 726 mmHg 49%
    09:00 +29°C° 0 mm 2 mps 726 mmHg 42%
    10:00 +31°C° 0 mm 3 mps 726 mmHg 35%
    11:00 +35°C° 0 mm 4 mps 726 mmHg 28%
    12:00 +36°C° 0 mm 3 mps 725 mmHg 26%
    13:00 +37°C° 0 mm 3 mps 724 mmHg 24%
    14:00 +38°C° 0 mm 3 mps 724 mmHg 22%
    15:00 +38°C° 0 mm 3 mps 723 mmHg 25%
    16:00 +37°C° 0 mm 2 mps 722 mmHg 29%
    17:00 +36°C° 0 mm 2 mps 722 mmHg 33%
    18:00 +34°C° 0 mm 2 mps 722 mmHg 39%
    19:00 +30°C° 0 mm 2 mps 722 mmHg 45%
    20:00 +27°C° 0 mm 1 mps 723 mmHg 51%
    21:00 +27°C° 0 mm 1 mps 724 mmHg 48%
    22:00 +28°C° 0 mm 1 mps 724 mmHg 45%
    23:00 +28°C° 0 mm 1 mps 725 mmHg 43%

    Day after tomorrow, 1 March, Sunday

    Time Temperature Precipitation Wind Pressure Humidity
    00:00 +28°C° 0 mm 1 mps 725 mmHg 41%
    01:00 +27°C° 0 mm 1 mps 725 mmHg 39%
    02:00 +27°C° 0 mm 2 mps 725 mmHg 38%
    03:00 +26°C° 0 mm 2 mps 725 mmHg 39%
    04:00 +25°C° 0 mm 2 mps 724 mmHg 40%
    05:00 +24°C° 0 mm 2 mps 724 mmHg 42%
    06:00 +25°C° 0 mm 2 mps 725 mmHg 43%
    07:00 +26°C° 0 mm 2 mps 725 mmHg 44%
    08:00 +27°C° 0 mm 2 mps 725 mmHg 45%
    09:00 +30°C° 0 mm 3 mps 725 mmHg 38%
    10:00 +33°C° 0 mm 3 mps 725 mmHg 32%
    11:00 +36°C° 0 mm 4 mps 725 mmHg 25%
    12:00 +37°C° 0 mm 4 mps 725 mmHg 24%
    13:00 +38°C° 0 mm 3 mps 724 mmHg 23%
    14:00 +39°C° 0 mm 3 mps 723 mmHg 22%
    15:00 +38°C° 0 mm 3 mps 722 mmHg 26%
    16:00 +37°C° 0 mm 3 mps 722 mmHg 30%
    17:00 +36°C° 0 mm 2 mps 721 mmHg 34%
    18:00 +32°C° 0 mm 2 mps 721 mmHg 40%
    19:00 +29°C° 0 mm 2 mps 721 mmHg 45%
    20:00 +27°C° 0 mm 1 mps 722 mmHg 51%
    21:00 +26°C° 0 mm 1 mps 722 mmHg 50%
    22:00 +26°C° 0 mm 2 mps 723 mmHg 48%
    23:00 +26°C° 0 mm 2 mps 723 mmHg 47%

    2 March, Monday

    Time Temperature Precipitation Wind Pressure Humidity
    00:00 +26°C° 0 mm 2 mps 723 mmHg 45%
    01:00 +25°C° 0 mm 2 mps 723 mmHg 43%
    02:00 +25°C° 0 mm 2 mps 723 mmHg 41%
    03:00 +25°C° 0 mm 2 mps 723 mmHg 41%
    04:00 +25°C° 0 mm 2 mps 723 mmHg 42%
    05:00 +24°C° 0 mm 2 mps 723 mmHg 43%
    06:00 +25°C° 0 mm 2 mps 724 mmHg 44%
    07:00 +26°C° 0 mm 2 mps 724 mmHg 45%
    08:00 +27°C° 0 mm 2 mps 724 mmHg 46%
    09:00 +29°C° 0 mm 2 mps 724 mmHg 41%
    10:00 +32°C° 0 mm 2 mps 724 mmHg 36%
    11:00 +35°C° 0 mm 3 mps 725 mmHg 31%
    12:00 +36°C° 0 mm 3 mps 724 mmHg 31%
    13:00 +37°C° 0 mm 3 mps 723 mmHg 30%
    14:00 +38°C° 0 mm 3 mps 722 mmHg 29%
    15:00 +37°C° 0 mm 3 mps 722 mmHg 32%
    16:00 +36°C° 0 mm 2 mps 721 mmHg 35%
    17:00 +36°C° 0 mm 2 mps 720 mmHg 38%
    18:00 +32°C° 0 mm 2 mps 720 mmHg 45%
    19:00 +30°C° 0 mm 1 mps 720 mmHg 51%
    20:00 +27°C° 0 mm 1 mps 721 mmHg 58%
    21:00 +27°C° 0 mm 1 mps 721 mmHg 58%
    22:00 +27°C° 0 mm 1 mps 722 mmHg 58%
    23:00 +26°C° 0 mm 2 mps 722 mmHg 58%

    3 March, Tuesday

    Time Temperature Precipitation Wind Pressure Humidity
    00:00 +26°C° 0 mm 2 mps 722 mmHg 55%
    01:00 +26°C° 0 mm 2 mps 722 mmHg 51%
    02:00 +27°C° 0 mm 2 mps 722 mmHg 48%
    03:00 +26°C° 0 mm 2 mps 722 mmHg 48%
    04:00 +26°C° 0 mm 2 mps 723 mmHg 48%
    05:00 +26°C° 0 mm 2 mps 723 mmHg 48%
    06:00 +27°C° 0 mm 2 mps 723 mmHg 49%
    07:00 +27°C° 0 mm 2 mps 723 mmHg 50%
    08:00 +28°C° 0 mm 1 mps 724 mmHg 51%
    09:00 +30°C° 0 mm 1 mps 724 mmHg 45%
    10:00 +32°C° 0 mm 1 mps 724 mmHg 39%
    11:00 +35°C° 0 mm 1 mps 724 mmHg 33%
    12:00 +37°C° 0 mm 2 mps 723 mmHg 31%
    13:00 +37°C° 0 mm 2 mps 722 mmHg 29%
    14:00 +38°C° 0 mm 2 mps 722 mmHg 28%
    15:00 +37°C° 0 mm 2 mps 721 mmHg 31%
    16:00 +36°C° 0 mm 2 mps 720 mmHg 34%
    17:00 +36°C° 0 mm 2 mps 720 mmHg 37%
    18:00 +32°C° 0 mm 2 mps 720 mmHg 41%
    19:00 +30°C° 0 mm 2 mps 720 mmHg 46%
    20:00 +28°C° 0 mm 2 mps 721 mmHg 51%
    21:00 +27°C° 0 mm 1 mps 721 mmHg 53%
    22:00 +27°C° 0 mm 1 mps 722 mmHg 56%
    23:00 +26°C° 0 mm 1 mps 723 mmHg 58%

    4 March, Wednesday

    Time Temperature Precipitation Wind Pressure Humidity
    00:00 +26°C° 0 mm 1 mps 723 mmHg 57%
    01:00 +25°C° 0 mm 1 mps 723 mmHg 56%
    02:00 +25°C° 0 mm 2 mps 723 mmHg 55%
    03:00 +25°C° 0 mm 2 mps 723 mmHg 54%
    04:00 +25°C° 0 mm 2 mps 723 mmHg 53%
    05:00 +24°C° 0 mm 2 mps 723 mmHg 53%
    06:00 +25°C° 0 mm 2 mps 724 mmHg 51%
    07:00 +26°C° 0 mm 2 mps 724 mmHg 50%
    08:00 +27°C° 0 mm 2 mps 725 mmHg 48%
    09:00 +30°C° 0 mm 2 mps 725 mmHg 43%
    10:00 +32°C° 0 mm 2 mps 725 mmHg 38%
    11:00 +36°C° 0 mm 2 mps 725 mmHg 32%
    12:00 +37°C° 0 mm 2 mps 724 mmHg 30%
    13:00 +38°C° 0 mm 3 mps 723 mmHg 28%
    14:00 +38°C° 0 mm 3 mps 723 mmHg 26%
    15:00 +38°C° 0 mm 3 mps 722 mmHg 28%
    16:00 +37°C° 0 mm 3 mps 721 mmHg 30%
    17:00 +37°C° 0 mm 2 mps 721 mmHg 32%
    18:00 +34°C° 0 mm 2 mps 721 mmHg 39%
    19:00 +31°C° 0 mm 2 mps 721 mmHg 45%
    20:00 +28°C° 0 mm 1 mps 722 mmHg 52%
    21:00 +28°C° 0 mm 1 mps 722 mmHg 52%
    22:00 +27°C° 0 mm 1 mps 723 mmHg 53%
    23:00 +27°C° 0 mm 1 mps 724 mmHg 53%
    Show more